Regional Weather Roundup
Issued by NWS Jackson, KY

Home | Current Version | Previous Version | Text Only | Print | Product List | Glossary Off
Versions: 1 2 3 4 5 6 7 8 9 10 11 12 13 14 15 16 17 18 19 20 21 22 23 24 25 26 27 28 29 30 31 32 33 34 35 36 37 38 39 40 41 42 43 44 45 46 47 48 49 50

172
ASUS43 KJKL 240710
RWRJKL

EAST KENTUCKY HOURLY WEATHER ROUNDUP
NATIONAL WEATHER SERVICE JACKSON KY
200 AM EST FRI NOV 24 2017

NOTE: "FAIR" INDICATES FEW OR NO CLOUDS BELOW 12,000 FEET WITH
NO SIGNIFICANT WEATHER AND/OR OBSTRUCTIONS TO VISIBILITY.

* THESE REPORTS ARE NOT UNDER NWS QUALITY CONTROL AND MAY NOT
  REPORT WEATHER SUCH AS PRECIPITATION AND FOG.

KYZ079-080-083-085-087-088-110-112-115-119-120-240800
...EASTERN KENTUCKY...

CITY           SKY/WX    TMP DP  RH WIND       PRES   REMARKS
JACKSON        CLOUDY    37  20  50 CALM      30.03S
LONDON         CLOUDY    28  24  85 SE5       30.02F WCI  23
SOMERSET*      CLOUDY    28  27  93 CALM      30.05S
MONTICELLO*    CLEAR     25  23  92 W9        30.05F WCI  15
WILLIAMSBURG*  CLOUDY    28  25  86 CALM      30.04S
MIDDLESBORO*   CLEAR     28  27  95 CALM      30.07S
HARLAN APT*    SUNNY     30  28  93 CALM      30.05S
PIKE CO APT*     N/A     36  21  55 S3        30.03S
BIG SANDY APT* SUNNY     33  24  69 CALM      30.04S
MOREHEAD APT*  CLOUDY    30  21  69 SE8       30.02F WCI  23
$$

KYZ035-036-041-042-044-050-067-078-099-240800
...CENTRAL KENTUCKY...

CITY           SKY/WX    TMP DP  RH WIND       PRES   REMARKS
MT STERLING*   CLOUDY    28  23  80 CALM      30.03S
DANVILLE*      PTCLDY    28  25  86 CALM      30.03F
LEXINGTON      CLOUDY    30  23  75 CALM      30.02S
FRANKFORT      CLOUDY    27  22  81 CALM      30.02R
LOUISVILLE     CLOUDY    34  27  75 SE5       30.02S WCI  30
LEBANON*         N/A     32  23  69 CALM      30.02F
GLASGOW*       CLEAR     28  28  99 CALM      30.03F
BOWLING GREEN  CLOUDY    29  26  89 CALM      30.04F
$$

KYZ091>093-OHZ055-061-077-WVZ005-015-034-035-042-240800
...SOUTHERN OHIO/WEST VIRGINIA...

CITY           SKY/WX    TMP DP  RH WIND       PRES   REMARKS
COVINGTON      CLOUDY    29  27  92 S5        30.00S WCI  24
COLUMBUS       CLOUDY    30  25  81 CALM      30.01F
DAYTON         CLOUDY    34  25  69 S8        29.99F WCI  27
WILMINGTON     CLOUDY    30  24  78 S3        30.00S
HUNTINGTON     CLOUDY    27  23  85 SE6       30.03F WCI  20
CHARLESTON     CLEAR     27  24  89 SE3       30.05S
PINEVILLE*       N/A     27  24  87 MISG      30.09R
BECKLEY        CLEAR     29  16  58 CALM      30.01R
BLUEFIELD      CLEAR     35  17  47 SW5       30.02R WCI  31
LOGAN CO APT*    N/A     34  23  64 CALM      30.03R
$$

VAZ002-007-008-TNZ017-027-036-066-071-240800
...SOUTHWEST VIRGINIA/EAST TENNESSEE...

CITY           SKY/WX    TMP DP  RH WIND       PRES   REMARKS
WISE*          CLEAR     39  25  56 CALM      30.02S
JONESVILLE*      N/A     27  27 100 CALM      30.07R
ABINGDON*      CLEAR     33  30  89 E3        30.03R
BRISTOL        CLEAR     30  29  96 CALM      30.04S
MORRISTOWN*    MOSUNNY   34  30  86 CALM      30.03S
SEVIERVILLE*   PTSUNNY   30  30 100 CALM      30.04S
KNOXVILLE      CLEAR     34  33  96 CALM      30.03S
LAFOLLETTE*    SUNNY     30  30 100 CALM      30.07S
OAK RIDGE      CLEAR     32  31  96 CALM      30.06R
CROSSVILLE     CLEAR     30  26  85 CALM      30.02F
NASHVILLE      CLEAR     32  27  81 S3        30.05S
$$

...KEY TO REMARKS...
VSB - VISIBILITY IN MILES
WCI - WIND CHILL INDEX
HX  - HEAT INDEX

$$




USA.gov is the U.S. government's official web portal to all federal, state and local government web resources and services.